This is the latest recevied weather packets stored in our database for station/object N0KWA. If no packets are shown the sender has not sent any weather packets the latest 10 day(s).
| Time | Temp. | Humidity | Pressure | Rain* | Wind** | Luminosity | Snow |
|---|---|---|---|---|---|---|---|
| 1778005968 | 27.78° C | 69% | 1015.1 hPa | 0 mm | - | 86 W/m² | - |
| 1778005664 | 27.78° C | 65% | 1014.9 hPa | 0 mm | - | 158 W/m² | - |
| 1778005361 | 28.33° C | 67% | 1015 hPa | 0 mm | - | 767 W/m² | - |
| 1778005057 | 27.78° C | 65% | 1014.9 hPa | 0 mm | - | 797 W/m² | - |
| 1778004755 | 27.78° C | 65% | 1015 hPa | 0 mm | - | 860 W/m² | - |
| 1778004452 | 27.22° C | 66% | 1014.9 hPa | 0 mm | - | 209 W/m² | - |
| 1778004148 | 27.22° C | 72% | 1015 hPa | 0 mm | - | 810 W/m² | - |
| 1778003845 | 27.22° C | 67% | 1015 hPa | 0 mm | - | 734 W/m² | - |
| 1778003541 | 27.22° C | 69% | 1015 hPa | 0 mm | - | 684 W/m² | - |
| 1778003238 | 27.22° C | 68% | 1015.1 hPa | 0 mm | - | 699 W/m² | - |
| 1778002935 | 27.22° C | 68% | 1015.1 hPa | 0 mm | - | 245 W/m² | - |
| 1778002631 | 27.22° C | 69% | 1015.1 hPa | 0 mm | - | 39 W/m² | - |
| 1778002328 | 26.67° C | 70% | 1015.1 hPa | 0 mm | - | 277 W/m² | - |
| 1778002025 | 26.67° C | 73% | 1015.4 hPa | 0 mm | - | 298 W/m² | - |
| 1778001722 | 26.67° C | 71% | 1015.3 hPa | 0 mm | - | 97 W/m² | - |
| 1778001421 | 26.11° C | 74% | 1015.3 hPa | 0 mm | - | 55 W/m² | - |
| 1778001119 | 26.11° C | 70% | 1015.3 hPa | 0 mm | - | 54 W/m² | - |
| 1778000815 | 25.56° C | 72% | 1015.4 hPa | 0 mm | - | 48 W/m² | - |
| 1778000512 | 25.56° C | 73% | 1015.4 hPa | 0 mm | - | 45 W/m² | - |
| 1778000212 | 25.56° C | 73% | 1015.2 hPa | 0 mm | - | 39 W/m² | - |
| 1777999909 | 25.56° C | 74% | 1015.4 hPa | 0 mm | - | 48 W/m² | - |
| 1777999604 | 25.56° C | 77% | 1015.4 hPa | 0 mm | - | 53 W/m² | - |
| 1777999302 | 25° C | 77% | 1015.6 hPa | 0 mm | - | 48 W/m² | - |
| 1777999000 | 25.56° C | 75% | 1015.4 hPa | 0 mm | - | 46 W/m² | - |
| 1777998698 | 25.56° C | 76% | 1015.3 hPa | 0 mm | - | 42 W/m² | - |
* Rain latest hour (hover to see other rain measurements)
** Current wind speed in m/s (hover to see current wind gust speed)